Theta_e
301 303 304 306 306 306 305 304 304 304 304 303 301 302 305 305 298 294 307 306 306 305 309 312 317 317 312 313 321 324 326 328 331 328 328 328 328 330 331 332 334 335 337 340 343 345 350 352 352 354 355 355 355 355 356 357 359 361 362 362 361 360 358 356 355 356 356 356 357 357 357 356 355 355 354 352 351 353 355 355 355 354 355 357 356 356 358
300 302 304 306 305 305 306 306 305 305 304 303 303 303 305 305 304 308 314 311 307 308 309 311 317 318 314 315 321 323 322 325 328 327 327 327 327 330 332 333 334 336 338 339 340 342 346 351 352 354 355 355 355 355 355 356 357 360 362 361 360 360 359 357 356 356 356 357 357 357 357 356 355 355 355 353 351 351 354 355 354 354 353 355 357 356 356
297 302 305 305 305 305 304 306 307 306 305 304 304 304 304 309 305 306 310 311 308 313 311 315 316 315 317 321 322 321 321 323 328 328 327 327 327 331 333 334 334 335 337 338 339 340 344 349 352 354 356 356 356 356 356 356 356 358 360 360 360 360 359 359 358 357 357 356 356 356 357 357 356 355 354 353 352 351 352 355 355 355 354 352 354 357 356
294 301 303 304 304 305 304 303 305 307 304 301 303 302 304 303 304 304 307 305 307 310 313 317 319 317 318 318 317 318 318 320 321 323 330 332 335 335 334 334 336 339 339 340 342 344 346 349 352 353 355 357 356 356 357 357 357 358 358 359 359 359 360 361 360 358 357 357 356 355 356 356 356 355 354 353 352 351 351 353 356 357 356 354 353 356 358
291 297 302 303 303 301 298 300 304 308 309 306 305 306 307 306 309 303 301 304 310 313 314 311 311 314 317 316 317 314 315 321 320 320 329 335 337 339 340 344 346 351 353 349 349 351 352 352 352 354 355 356 356 357 357 358 358 357 357 358 358 358 359 361 360 359 358 357 356 355 355 356 356 356 354 353 352 352 351 352 355 357 357 357 355 355 358
290 295 297 300 297 290 294 306 309 311 307 306 305 303 305 306 306 305 307 312 314 316 311 310 310 312 316 317 319 319 319 319 318 319 324 330 335 339 341 345 346 348 351 354 356 356 356 356 356 355 356 356 357 358 358 358 357 357 356 356 357 357 358 360 361 360 359 358 357 356 356 356 356 356 354 353 353 354 353 353 353 355 357 357 357 355 355
289 293 296 295 289 292 307 308 311 311 310 309 307 305 307 307 307 309 309 314 312 317 316 313 316 315 317 317 316 316 319 319 319 319 323 327 332 336 339 337 337 339 342 350 352 353 355 356 356 356 356 356 357 357 357 356 357 356 356 355 356 357 357 359 361 360 359 358 357 357 357 356 355 355 355 354 353 354 354 353 352 353 355 357 358 358 356
293 293 296 288 291 302 306 308 309 312 312 310 309 307 315 314 308 309 309 313 315 316 315 318 320 316 319 319 320 321 322 321 318 316 317 319 324 331 343 346 337 337 340 345 349 350 351 352 352 352 353 356 357 356 356 356 355 355 355 354 357 356 356 358 360 360 360 358 358 358 358 357 355 355 355 355 353 354 354 354 354 354 354 355 357 358 358
288 291 291 293 302 301 305 304 307 308 309 309 305 299 311 320 322 319 308 314 315 315 315 318 318 318 319 315 315 319 319 319 320 319 322 318 323 342 345 347 348 351 346 346 350 355 350 350 349 349 351 353 354 355 354 354 354 354 354 353 357 357 356 358 360 361 360 360 359 359 359 358 356 355 355 355 355 355 353 352 353 353 353 354 355 357 358
292 288 289 293 294 293 298 306 310 311 313 312 310 310 311 320 323 324 322 317 313 313 314 315 314 316 313 310 311 316 318 319 318 321 319 319 326 350 354 353 351 349 350 353 356 349 344 345 348 350 351 351 350 351 352 352 353 354 353 353 357 359 357 359 361 361 361 360 360 360 360 359 358 357 356 357 357 357 354 352 351 353 354 355 355 356 356
289 289 289 291 292 297 303 307 310 312 313 313 312 310 305 315 322 323 322 321 322 323 321 313 315 311 306 307 319 330 340 343 345 343 346 349 352 354 355 357 359 358 357 355 357 358 352 348 351 355 358 350 350 349 351 351 351 351 352 353 355 361 360 360 362 362 362 362 361 361 361 361 361 359 357 357 358 359 358 355 353 353 354 354 355 356 356
290 290 288 288 298 298 306 309 312 313 315 315 309 298 301 313 322 322 321 319 320 321 324 325 322 315 315 320 330 343 345 345 345 344 342 342 343 346 352 357 357 356 358 348 346 350 354 353 358 357 355 355 350 349 350 350 349 349 350 352 354 362 362 362 363 364 364 363 363 363 363 363 363 361 360 359 359 360 360 359 356 355 355 355 355 356 357
290 290 288 292 295 304 309 311 313 314 316 311 301 295 311 316 321 323 322 319 320 321 321 323 320 323 325 327 336 345 346 344 343 344 345 347 346 345 346 351 363 355 354 354 354 358 362 362 361 359 357 352 353 351 350 349 348 349 350 353 356 363 363 363 364 365 366 365 365 365 366 365 366 364 363 361 361 361 361 361 359 357 356 356 358 358 359
287 289 288 290 296 307 309 312 311 314 313 301 300 316 318 317 322 323 322 320 320 321 321 323 324 326 330 333 334 337 342 344 343 343 344 346 351 351 355 360 360 352 355 353 354 357 360 357 359 362 358 355 352 355 351 349 350 350 353 355 357 362 363 362 363 365 367 367 368 368 367 367 366 365 365 364 363 362 362 361 359 358 356 355 356 357 360
291 292 289 287 285 302 311 311 310 311 306 305 313 315 319 321 320 320 321 322 322 322 321 326 327 327 328 328 331 334 339 344 344 344 345 347 348 347 347 347 354 355 354 354 355 356 358 360 360 359 357 355 355 358 354 351 353 356 356 357 358 362 363 362 362 364 366 368 368 369 368 367 367 365 365 364 363 363 362 361 360 358 358 357 355 354 355
287 287 286 288 302 304 308 308 303 310 311 318 320 317 316 319 319 319 320 322 325 325 324 324 325 326 325 326 330 333 337 343 344 345 347 348 348 348 350 351 353 356 352 351 351 354 356 360 359 357 355 354 357 358 360 359 357 361 359 359 359 362 362 362 362 363 365 368 369 368 368 367 366 365 364 364 363 363 362 361 360 359 358 357 356 354 354
292 293 296 302 302 306 307 308 309 311 312 317 319 319 316 315 316 319 318 318 323 326 326 326 326 325 326 327 330 331 334 340 343 343 345 347 347 347 346 347 353 353 351 351 352 354 356 356 358 358 356 354 357 355 359 363 358 363 361 360 358 360 361 362 362 364 365 367 367 367 367 367 365 364 363 364 362 362 362 361 360 359 358 359 357 356 355
301 301 301 305 307 305 306 309 311 310 314 315 316 316 314 315 317 317 316 317 320 324 327 326 325 325 327 329 331 332 334 337 342 343 344 346 347 347 346 347 350 350 349 349 349 350 351 353 356 359 361 357 356 357 361 364 364 365 362 360 358 358 361 362 363 364 364 365 366 365 366 367 366 365 364 363 362 362 362 361 361 360 359 359 358 357 356
294 289 303 305 305 304 305 307 311 312 313 313 313 313 313 315 317 317 317 317 320 323 326 326 326 326 328 328 330 332 333 336 340 340 341 342 345 344 343 347 350 348 346 348 348 350 350 351 354 357 359 359 358 359 359 363 366 365 363 360 360 359 360 362 363 363 363 363 364 364 365 366 366 366 364 364 362 360 362 362 361 359 360 357 357 357 357
293 294 299 302 305 305 307 307 307 307 309 310 311 312 313 315 317 317 316 317 318 323 324 325 325 327 328 328 329 331 332 335 338 339 340 340 342 344 346 348 351 348 348 346 347 347 347 349 353 356 357 357 359 360 361 363 364 364 362 362 361 361 361 361 360 360 360 372 366 362 363 365 364 364 364 363 363 360 359 362 360 358 358 356 355 355 354
296 299 300 303 307 308 308 307 307 308 309 309 310 311 312 314 314 314 314 317 318 320 323 325 325 326 328 329 330 330 332 333 338 339 340 340 341 343 345 346 349 346 346 346 345 345 346 348 350 352 355 358 359 360 362 363 361 360 360 361 362 360 360 359 358 360 358 360 355 342 336 325 319 316 323 349 336 327 323 325 349 360 354 342 341 341 343
291 292 296 304 297 298 304 305 306 308 309 310 309 310 310 311 311 312 313 316 318 318 321 323 325 324 326 328 330 330 331 333 339 339 339 341 341 343 346 347 346 345 347 345 344 343 344 345 347 347 353 355 355 358 360 363 362 358 358 359 359 358 359 358 358 359 358 351 342 338 333 329 325 322 315 304 313 326 322 318 313 316 323 335 335 331 329
291 299 302 308 303 304 306 305 308 308 309 308 307 308 309 310 311 315 316 315 315 316 318 322 326 325 326 327 330 330 332 334 338 339 339 339 340 342 344 343 343 343 343 346 345 344 344 347 347 347 348 351 350 350 353 357 361 357 358 352 350 351 355 358 356 359 353 342 337 333 330 328 326 324 322 319 304 303 311 313 309 306 305 308 312 319 328
299 301 301 303 303 302 305 307 307 308 310 309 308 309 310 310 312 315 315 315 314 314 317 321 325 326 327 328 330 330 334 337 339 338 339 341 342 343 343 343 342 343 342 341 342 344 346 347 347 347 347 349 350 350 352 352 353 352 351 349 347 347 348 348 346 344 342 339 335 332 330 328 326 325 325 324 323 308 301 305 307 306 305 305 306 309 314
298 302 303 304 304 304 306 308 308 309 311 312 309 309 309 310 311 313 312 315 317 316 317 320 323 325 326 328 330 331 334 336 339 341 343 343 342 342 343 344 342 342 341 342 343 344 346 346 345 345 345 346 348 349 350 351 350 348 347 347 346 345 345 345 345 344 341 338 336 334 332 330 328 327 326 326 325 324 318 302 300 303 303 303 303 303 302
304 304 306 305 304 304 306 305 305 308 308 308 307 309 311 314 313 313 313 316 316 317 317 321 325 327 328 328 329 331 332 335 340 342 338 338 340 342 342 342 342 342 342 343 345 346 346 346 344 344 344 345 346 347 348 348 349 347 347 347 346 345 345 345 345 345 344 343 340 337 335 333 331 330 330 330 329 327 326 325 323 312 302 300 301 301 300
303 304 304 302 301 302 305 303 302 307 307 307 308 308 309 309 314 314 316 318 318 319 322 325 326 328 329 330 331 332 332 334 336 337 338 339 340 341 341 342 343 343 343 341 341 343 345 344 343 342 343 344 344 346 348 347 346 346 346 346 347 352 353 349 344 344 344 344 343 341 339 337 335 334 333 334 334 334 334 333 330 328 327 325 313 309 319
302 302 303 298 298 300 303 306 306 307 307 309 308 307 307 308 310 311 312 313 314 318 321 323 326 326 327 330 330 330 332 333 333 335 336 338 340 340 342 343 344 343 341 341 340 343 345 344 344 343 344 345 346 346 347 346 344 343 343 343 343 342 342 344 342 342 341 339 339 340 340 339 337 336 336 335 335 335 332 334 333 331 329 327 325 319 313
300 301 302 303 303 304 305 306 305 305 305 306 308 307 307 306 306 308 310 312 313 314 317 321 325 326 328 329 330 330 330 332 333 334 337 339 339 339 342 342 341 342 341 341 342 341 340 340 341 341 341 344 345 344 344 344 342 342 340 340 340 340 340 340 339 339 339 338 337 337 334 334 334 334 333 333 333 333 332 332 333 332 330 329 328 329 325
300 301 302 302 304 305 304 303 303 303 304 305 306 305 306 306 305 306 309 311 313 314 317 321 321 324 327 327 329 331 332 333 334 336 339 340 339 339 339 340 341 341 341 340 338 337 338 338 339 339 340 342 342 342 341 340 341 341 340 339 339 339 339 340 339 337 336 335 335 334 335 335 334 333 332 332 332 331 331 331 331 330 328 327 329 325 325
301 301 302 302 303 303 302 302 303 304 304 305 305 305 305 306 306 306 308 311 313 314 318 323 324 323 325 327 329 333 336 338 337 337 338 340 341 339 338 337 336 334 335 337 339 339 337 337 337 337 340 343 343 342 341 339 338 338 338 337 336 331 331 333 334 337 336 335 335 334 334 333 333 333 332 331 331 330 329 330 330 329 329 328 328 326 325
300 301 301 301 301 301 302 302 303 303 304 305 304 304 305 305 305 307 310 313 315 319 322 322 321 322 324 328 330 332 332 333 334 335 336 336 336 336 337 336 334 334 333 334 335 335 335 334 335 339 338 339 339 339 339 338 337 336 335 339 333 333 330 330 332 332 333 335 333 333 333 332 331 331 331 330 329 330 329 329 329 328 329 328 327 327 325
299 298 298 299 301 301 301 302 303 303 304 304 305 306 307 308 309 313 316 320 322 322 321 319 318 318 320 324 328 332 331 330 330 331 332 332 333 333 332 331 330 330 330 331 333 335 335 333 334 335 336 340 338 338 338 338 337 335 335 335 334 334 336 329 329 331 334 332 331 331 330 330 331 330 329 329 329 329 328 327 327 331 330 328 326 325 323
301 300 301 302 302 301 301 302 304 304 305 306 307 307 308 311 317 319 319 320 319 318 317 315 314 314 315 318 321 324 327 325 323 323 324 325 327 329 330 328 327 327 327 328 330 331 332 332 332 332 334 337 337 336 335 336 335 334 334 334 333 330 330 329 330 330 329 330 331 332 331 331 330 329 330 329 328 327 328 328 329 330 330 328 327 325 315
306 307 308 308 307 307 307 306 306 306 306 306 307 308 314 319 319 318 317 315 315 316 316 313 311 311 312 313 315 318 318 317 317 318 318 319 321 323 326 327 326 324 325 326 328 330 331 331 331 331 333 336 336 336 336 335 334 332 332 332 331 330 331 332 330 329 329 329 329 328 327 327 327 331 329 328 328 328 327 328 328 328 329 329 328 328 322
308 309 309 311 312 313 311 310 309 309 309 310 315 316 314 315 315 313 312 312 314 314 312 310 309 309 309 309 310 312 313 314 313 313 313 314 316 319 320 321 322 324 322 322 325 328 329 330 337 337 332 333 335 335 336 335 335 334 332 331 330 329 328 327 326 326 326 326 325 325 325 327 326 324 323 323 323 323 323 324 324 324 324 324 324 323 323
306 306 307 307 309 312 311 310 311 311 310 311 312 313 312 313 312 312 312 311 311 311 310 309 308 307 307 308 309 310 311 312 311 311 311 311 312 312 312 314 315 317 319 318 320 326 327 327 331 332 329 329 330 331 334 339 331 331 330 329 329 327 326 325 324 323 323 323 322 322 323 322 321 320 320 319 318 318 319 319 319 320 319 319 319 319 320
303 304 304 305 306 308 310 310 312 311 310 309 309 310 310 309 309 308 308 309 309 309 309 308 307 308 308 308 307 307 308 309 310 309 309 309 309 309 309 309 310 312 314 316 321 323 324 326 329 326 323 323 324 326 329 331 335 328 327 326 326 325 324 323 323 322 321 320 320 319 319 318 317 316 316 316 316 315 315 315 315 315 315 315 315 315 316
301 302 303 304 305 306 307 308 309 310 310 309 309 310 310 309 307 306 306 306 307 308 306 305 306 305 305 305 305 306 307 308 308 308 308 308 309 308 307 308 309 311 314 319 320 321 323 324 322 322 321 321 322 323 327 330 329 324 324 324 323 323 323 323 321 320 319 319 317 316 316 315 315 314 314 313 313 314 314 314 313 313 312 312 312 312 313
302 302 302 303 302 303 304 305 306 307 308 309 309 308 310 311 309 307 305 305 305 307 305 304 303 303 303 303 303 304 305 307 307 307 307 307 307 307 306 307 310 312 316 318 317 318 321 323 320 320 320 320 319 320 323 324 324 320 318 318 317 317 317 318 318 318 318 317 316 316 313 313 312 312 312 311 311 311 310 310 310 310 310 310 309 309 310
304 304 303 302 302 303 302 303 304 305 307 307 308 309 310 309 309 309 308 306 305 305 305 304 303 302 302 302 302 303 304 307 307 307 307 306 305 305 304 304 309 312 314 314 315 316 317 318 317 315 317 318 318 322 318 321 317 315 315 315 314 314 314 314 314 314 314 314 313 311 310 310 309 309 309 308 307 307 307 306 306 306 306 306 306 307 307
305 306 305 305 304 303 303 304 304 304 305 306 308 308 308 310 310 309 309 310 310 308 306 306 308 305 304 304 304 304 303 304 305 306 307 307 305 304 304 305 310 311 315 314 314 312 311 312 314 316 313 314 316 320 320 316 313 313 313 313 312 313 312 312 311 311 311 311 309 308 308 308 307 306 306 305 304 305 304 304 304 304 304 304 304 304 304
305 305 305 305 306 306 305 305 304 304 305 305 306 306 307 308 308 309 309 310 309 309 309 307 307 308 307 305 304 303 303 303 303 304 305 307 308 308 306 307 310 312 315 314 312 309 309 308 310 312 316 315 314 317 316 311 310 311 311 311 312 311 310 310 309 309 308 308 307 307 306 306 305 304 303 302 302 302 302 301 301 302 302 302 302 303 303
306 305 305 305 305 306 306 306 306 305 304 305 306 306 306 306 307 307 307 308 308 309 309 309 309 308 309 308 307 305 303 303 303 303 303 304 306 308 310 310 310 313 314 313 311 310 310 309 310 311 315 315 315 314 310 308 307 308 308 308 309 308 308 307 306 306 305 306 305 305 305 305 303 302 301 301 300 299 300 300 299 300 300 300 300 300 300
306 306 305 305 305 305 304 304 304 304 305 306 306 306 306 306 306 306 306 306 307 307 308 307 308 308 308 308 309 308 308 306 305 304 302 302 303 305 311 314 312 312 313 313 310 310 309 310 312 312 313 312 312 312 306 306 306 306 306 306 306 306 306 306 306 305 304 303 303 303 304 302 302 301 300 300 301 299 298 298 298 298 298 298 298 298 299
307 307 307 308 305 304 304 304 304 304 304 304 303 305 306 305 305 306 306 306 305 305 305 306 306 307 307 307 307 306 307 308 308 308 306 306 305 307 312 313 312 314 313 313 311 310 310 311 310 311 311 311 311 306 305 306 305 305 305 305 305 305 304 305 305 304 303 303 301 300 300 300 299 299 299 299 299 300 301 301 299 298 297 298 298 298 298
305 305 305 305 305 306 306 305 305 303 302 301 300 300 303 303 303 303 303 304 305 305 305 305 306 306 307 307 307 306 304 304 305 308 308 310 312 311 312 312 312 312 313 310 310 311 311 311 312 309 310 311 310 306 305 305 304 304 304 305 305 305 305 304 304 304 304 305 305 304 304 303 301 301 302 301 300 300 300 300 299 299 299 300 299 299 298
303 303 303 303 303 303 304 303 303 302 301 300 300 301 301 302 303 302 302 301 302 303 304 304 305 305 306 306 307 308 308 306 303 304 306 306 307 308 307 307 309 310 311 311 311 311 311 311 310 309 309 309 307 304 304 304 304 304 303 304 304 304 304 304 304 304 304 304 304 304 303 302 302 302 302 301 301 301 301 301 300 300 300 300 299 298 298
305 304 303 303 303 303 302 302 301 302 301 302 302 301 302 301 301 302 302 301 301 300 300 302 303 304 304 307 307 306 308 309 307 305 307 307 307 307 308 310 311 310 308 306 306 308 312 309 309 309 310 309 304 304 303 303 304 304 303 302 302 303 304 304 304 304 304 304 304 305 304 304 303 303 303 303 303 302 303 302 302 301 300 300 300 300 300
305 305 304 303 302 301 301 300 300 300 301 302 302 302 301 300 299 299 301 301 301 302 299 300 300 302 303 303 303 305 305 306 308 309 309 308 308 307 308 308 309 309 309 306 306 306 310 310 310 310 308 304 304 304 304 304 304 304 303 303 303 302 303 304 304 304 303 303 302 303 303 303 302 304 304 304 304 303 302 302 302 303 304 302 301 300 300
305 304 302 303 302 303 303 303 302 302 302 302 302 303 302 299 299 300 300 301 300 300 298 299 299 300 300 301 302 303 304 304 307 308 306 306 307 308 308 307 307 307 306 305 305 304 304 304 305 306 305 305 304 304 304 304 303 304 304 302 302 302 302 302 302 302 302 303 302 302 302 302 302 301 301 302 303 302 303 303 302 302 302 301 300 298 297
302 302 302 302 301 300 300 301 305 303 302 302 301 301 300 300 299 298 299 302 300 298 298 297 297 299 300 300 302 301 303 304 304 304 308 307 305 304 307 307 305 305 304 303 303 303 303 305 307 307 307 303 303 303 306 306 304 303 303 304 303 302 302 302 302 301 301 302 302 301 302 302 301 300 301 301 302 302 302 301 301 301 301 300 298 297 295
Wind_Speed
15 14 14 13 13 11 8 19 15 16 18 22 20 8 7 10 6 6 5 10 7 4 3 1 1 4 4 8 7 11 7 5 12 21 21 19 17 16 17 19 20 20 17 16 17 16 17 17 16 16 16 16 15 15 16 17 17 18 17 17 18 18 18 18 18 17 16 16 16 16 16 16 15 15 15 14 14 13 13 14 13 14 13 13 14 13 12
15 12 10 9 10 10 10 5 15 16 15 21 22 12 5 14 6 5 8 8 10 7 3 3 1 0 2 4 6 7 8 8 7 14 20 21 18 16 15 17 18 17 18 17 16 15 14 16 16 16 16 16 17 17 16 17 17 16 16 17 18 18 18 18 17 16 16 15 15 16 16 16 16 16 14 14 14 14 14 15 14 14 14 13 13 14 13
12 9 8 9 9 8 9 10 10 20 13 15 21 17 12 5 8 10 8 6 6 2 6 3 4 4 5 9 8 9 8 9 12 10 12 17 17 13 13 14 16 16 16 15 14 15 15 16 17 16 16 16 16 17 17 17 18 17 16 17 18 18 18 17 17 17 16 16 15 16 16 16 16 16 16 14 14 14 14 14 14 14 14 15 13 13 14
9 11 12 10 10 11 9 9 9 4 13 12 18 17 12 5 6 13 3 7 4 5 5 4 3 4 7 5 6 7 6 8 9 8 10 11 8 9 13 13 11 12 13 13 15 16 16 16 16 15 13 14 15 17 16 17 16 16 15 16 18 17 17 16 17 17 16 16 16 17 15 16 16 16 15 15 14 14 14 14 13 13 14 15 14 13 13
9 14 15 9 12 10 8 6 5 2 0 4 7 16 14 10 7 11 7 4 5 4 6 9 6 10 9 6 5 9 9 6 5 9 10 11 10 12 10 9 10 11 12 13 14 14 15 16 16 16 14 14 15 15 15 14 13 15 15 15 16 17 16 16 17 16 16 16 17 16 17 17 15 15 15 15 15 14 15 14 12 14 15 14 14 13 13
10 17 17 12 5 3 1 3 4 1 2 5 7 14 14 13 3 3 7 4 4 5 6 10 7 7 7 6 5 8 9 11 11 11 6 7 13 13 11 12 12 9 8 9 9 12 12 12 13 13 12 13 14 14 14 12 14 15 15 14 14 16 16 16 17 16 16 16 16 17 16 16 15 15 15 16 16 15 13 12 13 13 13 15 14 14 13
7 13 13 5 5 5 3 7 6 4 3 4 10 9 20 10 6 3 8 4 8 7 4 7 8 7 6 8 9 7 7 9 7 7 7 10 5 4 9 10 8 7 9 8 7 7 7 8 8 8 8 8 8 10 11 13 13 13 14 13 12 14 16 16 16 16 16 16 16 16 15 15 15 15 16 15 15 14 13 14 14 14 14 14 14 14 15
7 3 2 3 2 7 10 8 8 9 6 1 3 17 23 11 7 4 5 11 7 7 8 6 6 6 8 10 7 7 8 6 4 7 4 6 6 7 4 3 4 10 9 9 8 7 6 6 6 6 7 7 9 10 10 12 12 12 12 13 12 14 15 15 16 17 17 16 16 15 15 14 15 15 14 15 15 14 13 12 12 11 11 12 13 13 14
3 7 7 6 6 9 4 4 4 4 1 2 5 9 11 16 17 14 3 10 8 6 5 7 6 8 10 8 7 6 8 7 5 5 2 4 8 11 7 8 6 2 5 7 8 5 5 6 6 7 8 7 7 8 9 10 10 12 11 13 12 13 15 15 16 16 16 16 16 15 15 15 16 16 15 14 13 11 12 12 12 13 13 14 13 13 14
5 7 7 5 1 2 5 9 11 13 4 9 7 9 11 15 21 20 23 9 5 6 15 12 11 13 13 8 5 6 6 6 4 2 3 5 6 9 10 8 6 7 7 6 5 5 5 4 5 6 8 8 8 7 9 8 9 10 11 12 10 12 14 15 15 15 15 16 15 15 15 16 17 16 14 12 12 11 12 13 13 14 13 12 11 12 14
7 6 3 3 1 1 6 14 15 20 5 8 7 13 10 11 15 18 16 18 19 17 7 11 11 10 9 8 8 10 13 14 14 16 18 16 13 10 8 8 10 7 6 5 4 4 1 1 2 3 4 8 10 9 8 10 9 9 10 10 10 11 12 13 14 14 15 15 15 15 16 16 14 14 14 13 12 10 11 11 11 9 9 10 11 11 12
5 5 3 4 2 4 9 14 17 13 12 7 7 10 8 9 14 15 17 19 18 16 13 15 16 11 10 6 4 7 13 13 14 13 12 13 12 11 9 8 7 5 5 5 3 2 1 4 4 0 3 4 7 10 10 10 11 11 10 9 7 7 10 12 12 13 13 14 14 15 15 13 12 12 10 10 11 11 11 10 10 10 9 9 11 11 10
6 6 5 4 4 5 11 12 18 19 14 6 11 5 1 9 9 13 13 16 15 13 13 12 12 7 6 5 5 9 9 13 13 11 8 9 10 9 8 7 5 3 3 3 2 2 0 2 4 3 0 2 4 6 7 9 12 13 9 7 8 8 9 10 11 13 12 13 14 13 12 12 11 10 10 11 10 10 11 9 9 9 10 7 8 8 8
5 4 7 5 3 5 13 6 16 19 8 7 3 2 6 9 5 12 12 13 13 11 12 9 9 10 11 11 11 6 8 10 9 8 7 7 9 9 6 7 5 4 2 4 6 6 4 5 5 4 2 1 2 4 6 10 13 8 7 8 9 9 10 11 11 11 12 11 12 11 10 10 10 9 8 9 9 10 9 8 10 10 9 8 7 5 6
5 4 5 4 3 7 12 12 10 17 7 3 4 4 6 11 13 11 10 11 11 11 10 11 11 12 13 13 12 13 9 12 10 9 8 10 9 8 8 7 6 4 4 5 6 5 5 6 6 5 4 4 3 4 7 11 6 7 9 9 9 9 10 10 11 11 10 11 10 8 9 10 10 9 8 8 8 8 8 8 9 9 9 8 7 5 4
4 4 3 2 1 7 15 14 7 7 6 5 1 6 10 12 13 14 12 11 11 12 11 12 12 12 12 12 13 12 10 10 8 8 9 8 8 9 9 8 7 6 5 5 5 5 4 5 4 4 4 5 4 4 7 5 7 7 9 9 10 10 10 10 10 10 10 10 10 9 9 9 9 9 8 8 8 8 8 9 8 8 8 7 7 6 6
5 2 1 3 7 8 10 10 6 4 8 6 10 9 10 10 11 11 10 13 14 12 12 12 12 12 12 10 11 11 10 7 9 10 10 10 9 9 8 7 5 4 5 5 4 4 5 7 7 6 4 3 5 4 3 5 8 8 8 9 10 9 10 10 10 10 9 9 10 9 8 9 9 9 8 8 8 7 8 8 8 8 7 7 7 7 6
7 10 9 2 3 10 10 10 9 11 14 14 13 12 9 10 9 9 10 12 13 14 13 11 11 12 12 12 12 12 11 12 8 8 8 7 7 7 6 6 7 5 5 2 2 4 6 7 7 7 5 0 2 1 2 1 5 7 9 9 9 9 9 9 10 10 10 9 9 8 8 8 8 8 9 8 8 7 7 7 7 7 7 7 7 6 7
4 5 3 3 6 11 10 8 5 7 11 11 11 10 10 10 11 11 12 12 12 13 12 14 11 11 11 11 11 10 9 9 7 7 7 6 5 5 5 5 5 5 5 5 6 6 7 7 7 6 5 4 3 2 4 3 4 6 7 8 8 8 8 8 8 9 9 8 8 7 7 6 6 7 7 8 7 7 7 7 7 7 7 8 7 7 7
5 6 12 8 8 5 4 3 7 11 11 13 12 9 9 9 10 11 11 11 12 13 12 12 10 10 10 9 10 9 9 8 6 6 4 5 5 5 5 6 6 6 6 6 6 6 6 6 7 6 6 5 5 4 4 4 4 6 7 7 8 7 8 8 7 8 8 10 10 7 5 5 6 7 7 8 7 6 6 8 8 6 7 7 7 7 6
9 13 12 7 2 2 1 13 11 7 9 9 10 10 9 10 11 11 10 10 10 11 12 12 10 9 10 9 9 11 9 10 7 7 7 6 6 6 8 6 5 4 4 5 6 6 6 7 7 7 6 6 7 6 5 3 4 6 7 6 7 7 7 7 7 6 7 7 8 9 9 11 10 8 6 3 7 7 5 3 4 7 6 6 6 7 8
6 5 6 7 4 1 5 11 9 8 7 8 9 8 9 9 10 10 10 8 8 9 10 11 9 9 9 11 10 12 12 12 7 8 8 7 6 5 5 4 4 4 4 4 4 4 4 4 5 6 5 5 6 6 5 2 3 4 5 6 6 6 7 6 6 6 7 8 9 9 10 9 11 12 16 18 11 7 6 9 17 14 12 7 7 9 11
5 4 6 2 3 2 5 7 5 6 6 6 6 7 7 7 6 6 8 10 9 9 9 9 9 9 10 12 11 11 11 13 8 5 5 6 5 5 4 3 3 3 3 2 3 3 3 4 4 4 3 4 5 6 5 4 2 4 5 6 6 5 5 4 6 6 9 9 8 9 9 10 11 12 11 13 18 18 14 14 18 20 20 18 16 13 14
13 13 13 10 5 2 2 3 4 3 3 3 3 3 4 5 6 6 8 7 8 9 8 8 8 9 9 10 10 9 9 11 7 6 4 5 4 4 2 2 1 0 1 1 2 1 2 4 4 6 7 6 6 6 5 5 7 7 7 7 7 6 6 7 10 10 10 10 10 10 9 10 12 12 12 12 10 15 17 16 20 21 20 19 17 15 15
9 8 10 9 7 9 6 1 2 3 4 3 3 4 6 7 7 6 6 4 4 6 7 8 7 6 8 8 8 7 6 8 7 5 4 3 3 2 1 0 1 0 0 0 2 3 3 3 3 4 5 4 5 7 6 7 8 9 8 9 8 7 8 9 10 11 10 10 10 10 11 10 9 11 12 12 12 9 10 14 15 17 18 17 16 15 15
8 8 8 8 8 6 6 6 4 1 4 6 4 1 3 5 6 6 3 3 4 4 5 5 6 7 6 7 8 8 7 7 6 6 6 4 3 2 0 0 0 0 0 1 3 3 3 3 4 5 5 4 5 5 6 8 9 10 9 9 9 7 8 9 10 8 8 8 9 8 8 9 9 9 9 10 11 12 11 9 9 9 9 10 14 14 12
12 9 8 9 8 6 4 4 5 5 5 6 6 4 3 5 7 4 2 1 3 4 4 5 5 5 6 5 7 8 6 7 7 5 5 5 3 1 1 1 0 1 2 3 3 4 4 3 3 5 4 4 4 4 5 8 10 10 9 9 9 11 15 10 9 9 8 9 9 9 8 9 9 9 9 9 10 9 8 9 9 9 7 4 4 10 10
15 12 7 7 6 5 4 6 8 8 8 7 6 9 8 6 8 8 5 1 0 1 3 3 4 4 5 4 5 8 7 6 7 6 6 4 2 3 2 2 2 3 3 3 2 0 1 2 2 3 3 3 3 3 5 8 9 10 9 9 10 9 9 10 9 9 9 9 8 9 9 9 9 9 8 8 8 8 8 8 8 8 6 5 4 6 12
17 16 14 13 10 6 7 9 9 8 8 9 10 10 11 13 13 11 9 8 6 4 2 3 3 3 4 4 4 7 8 7 6 6 5 2 4 3 1 3 2 2 2 2 2 2 3 4 4 4 3 3 2 3 4 6 8 9 9 9 9 9 8 8 8 9 9 9 9 10 10 10 10 9 9 9 9 8 8 8 8 7 7 4 4 6 6
16 14 13 11 9 6 6 8 8 8 6 6 9 9 9 11 14 14 14 12 10 12 6 3 2 3 2 2 2 5 7 8 7 6 4 2 4 3 3 2 3 3 3 2 3 3 4 5 6 5 4 4 7 7 8 8 9 9 10 9 8 7 7 7 8 9 9 9 10 12 10 10 9 9 9 8 8 8 7 8 8 7 7 6 5 6 6
15 15 15 13 10 8 10 9 8 9 6 4 5 7 8 8 10 13 14 13 12 12 12 8 3 2 1 1 2 3 5 7 6 2 1 3 3 2 3 2 1 2 2 1 0 2 3 3 4 5 3 4 6 6 7 8 8 9 8 7 7 9 11 10 8 8 7 8 8 8 8 8 8 9 9 8 7 7 6 7 7 7 6 6 6 6 6
11 13 15 13 11 11 10 7 8 7 5 4 5 7 6 6 8 10 10 10 10 11 9 8 7 6 5 3 2 1 3 3 3 4 4 7 7 6 8 7 8 8 9 8 8 8 8 8 7 4 4 7 6 7 7 7 7 7 7 6 7 7 9 12 9 9 8 8 8 8 8 9 9 8 7 7 6 6 5 5 7 7 7 7 6 6 4
9 10 11 12 11 10 10 9 8 7 6 7 6 5 5 5 6 6 5 6 6 4 5 6 6 7 8 9 9 5 2 6 7 8 8 8 6 4 6 8 8 8 8 7 7 6 5 5 4 4 4 3 8 7 8 8 6 6 5 6 6 7 8 9 10 9 10 9 8 8 7 8 9 8 8 7 6 6 6 6 7 8 8 7 6 3 2
5 4 3 5 8 9 11 9 7 6 4 4 5 4 5 5 3 1 2 4 5 6 4 5 9 11 12 13 13 10 8 11 10 9 10 9 8 8 7 7 8 9 8 7 8 7 6 6 6 6 6 5 4 6 7 7 6 6 6 6 6 7 8 7 9 8 8 9 10 11 10 9 7 6 6 6 6 5 5 4 7 8 7 6 4 3 3
3 3 3 3 6 5 4 5 5 4 3 4 5 6 1 1 3 4 6 8 7 4 4 6 13 15 15 15 13 9 13 13 11 11 12 11 11 10 9 6 4 10 11 11 10 8 8 9 8 8 10 11 10 9 9 10 11 11 11 11 11 10 10 10 11 10 10 10 10 10 10 10 10 10 11 10 9 9 10 10 10 8 6 5 4 2 1
17 11 9 8 7 5 2 4 6 7 6 3 2 6 5 6 5 6 13 10 7 7 7 11 18 18 17 16 13 11 13 14 14 15 15 15 13 11 11 11 8 8 11 11 9 8 9 10 15 15 10 10 10 10 9 9 9 10 10 11 11 11 11 11 11 11 11 10 11 10 11 13 13 12 11 10 10 10 10 10 10 10 9 9 8 7 8
19 18 17 16 12 8 11 12 13 15 14 12 11 12 13 9 3 10 15 12 11 10 8 11 18 20 18 15 12 12 13 13 14 14 14 14 13 14 14 13 14 12 10 11 7 5 9 12 17 17 12 10 11 11 11 12 8 10 10 10 10 10 10 10 11 11 11 11 10 10 11 11 10 11 11 11 11 10 10 9 9 9 9 8 8 7 8
25 23 24 21 17 11 19 19 14 18 18 19 18 17 13 7 5 12 16 14 12 11 11 14 15 13 16 18 18 16 14 13 14 15 15 14 13 14 17 16 14 14 12 10 6 9 10 13 15 13 12 12 13 15 18 21 19 13 11 11 10 10 11 11 11 11 11 10 11 11 11 10 10 10 10 10 10 10 9 9 8 8 8 8 8 8 8
26 24 22 19 16 19 25 18 17 17 17 18 15 14 10 8 13 18 17 14 13 11 13 13 14 17 17 18 18 16 15 13 13 13 14 13 13 17 16 14 13 13 11 12 9 9 13 14 12 13 12 13 15 16 18 20 19 12 11 10 10 10 10 10 11 11 11 11 11 11 11 11 10 10 10 9 9 9 10 10 9 8 9 8 9 9 9
21 21 22 21 22 22 19 18 19 19 18 16 14 13 11 10 13 17 16 15 13 12 13 13 16 16 17 17 16 15 14 13 12 13 14 13 14 16 16 18 18 16 16 18 13 11 17 20 14 12 12 13 14 13 14 19 17 13 12 12 12 12 12 11 11 11 10 11 12 13 11 11 10 10 9 9 9 9 8 9 9 9 9 9 9 8 8
18 17 18 20 19 20 21 20 19 17 17 16 15 14 13 13 14 16 15 14 13 13 15 14 15 16 16 16 16 14 14 14 14 14 13 14 16 15 16 15 15 14 15 14 13 14 18 16 13 13 13 14 13 14 13 18 14 12 12 12 12 12 12 12 11 11 11 11 11 10 10 9 10 10 9 9 9 9 9 9 9 9 9 9 9 8 8
16 15 16 16 15 16 17 16 15 16 16 16 16 16 16 15 13 13 11 11 12 13 15 16 18 15 13 14 14 15 15 15 16 16 17 16 14 12 15 13 13 14 22 20 17 17 14 15 14 14 13 14 15 22 20 14 12 12 12 12 11 11 11 11 11 11 11 11 10 9 9 9 10 9 9 9 9 9 9 9 9 9 9 8 8 8 8
14 15 14 13 12 11 12 13 14 15 15 14 13 13 12 11 12 13 14 14 13 11 12 13 15 14 11 12 14 14 12 13 14 14 14 14 13 13 12 10 10 13 24 17 15 14 15 14 15 15 21 18 16 22 21 14 12 12 11 11 12 12 12 11 11 11 11 10 10 10 10 10 10 10 10 10 9 9 9 9 8 8 8 8 8 8 8
12 12 12 12 12 11 10 9 9 10 11 11 12 13 13 13 13 13 13 12 13 13 11 10 10 10 11 11 11 12 11 11 10 11 11 11 12 13 13 11 10 15 23 14 14 14 15 14 15 22 27 25 24 21 14 12 12 12 11 11 11 12 12 12 11 11 10 9 9 9 10 10 10 10 10 9 9 9 9 9 9 8 8 8 8 8 8
10 10 11 11 10 10 10 10 11 10 8 8 10 10 11 12 12 13 13 13 14 14 13 13 12 9 9 9 9 9 9 9 9 9 11 11 11 10 9 11 12 10 15 17 11 12 11 12 17 25 22 23 21 20 12 11 12 12 11 11 10 10 10 11 10 9 10 10 10 9 9 9 8 9 9 10 10 9 9 9 9 9 9 8 8 9 9
9 8 8 9 9 9 9 10 10 10 10 9 10 10 10 10 10 11 11 12 12 12 11 11 11 12 11 10 10 10 9 8 8 8 10 10 11 8 9 11 9 12 18 18 9 10 12 21 22 20 19 19 19 14 12 11 11 10 10 11 10 10 9 9 9 9 9 9 9 8 8 7 7 7 8 8 8 8 8 10 9 10 10 10 10 10 9
8 8 9 9 9 8 7 7 8 10 11 11 11 10 9 10 10 10 10 10 10 11 11 11 11 11 11 10 8 7 8 8 9 7 5 4 8 11 12 15 15 18 13 10 9 9 8 11 15 19 18 19 16 10 11 11 11 11 10 10 9 9 9 9 8 7 7 7 7 8 7 7 7 7 7 7 8 8 7 8 8 8 8 8 8 9 10
7 8 8 9 10 10 10 10 9 8 9 10 9 8 9 9 8 9 10 9 9 9 10 10 10 11 11 11 10 8 6 5 8 7 6 8 7 7 7 7 10 14 14 12 13 13 16 15 15 16 16 14 10 9 10 10 10 10 10 9 8 8 7 7 6 7 7 7 6 5 5 5 6 7 7 7 6 6 6 7 7 7 7 8 8 9 9
5 7 7 7 8 8 9 9 10 9 8 7 7 8 8 9 9 7 7 8 9 9 9 8 8 8 9 9 10 8 8 8 6 6 5 6 7 7 8 10 14 13 9 8 8 7 11 13 14 14 13 11 6 7 8 9 10 10 9 9 9 8 7 7 6 6 6 6 5 5 5 5 5 5 6 6 5 4 5 5 6 6 6 7 7 8 8
6 5 6 5 6 7 7 7 7 7 7 7 6 6 7 7 7 8 6 6 8 8 8 8 7 7 6 7 7 7 8 8 8 7 7 8 8 8 9 9 10 14 14 10 9 10 14 18 14 13 10 8 9 9 8 8 9 9 9 10 10 9 10 9 9 10 8 8 9 9 9 9 8 9 8 5 4 5 5 6 6 8 12 9 7 7 7
4 5 6 6 7 6 6 5 5 5 4 5 5 5 6 6 6 6 6 7 6 7 7 7 8 8 7 7 7 7 8 7 7 9 8 8 8 11 12 10 11 10 10 10 9 9 8 8 8 9 10 9 8 8 8 8 8 8 8 8 9 9 9 9 7 8 8 7 7 8 8 8 8 8 8 7 7 6 6 6 6 5 5 6 8 8 8
8 7 6 7 6 6 6 5 3 4 4 4 4 4 4 5 5 5 6 10 6 6 6 6 7 7 6 6 7 7 7 8 7 6 6 6 7 8 10 12 8 9 8 7 8 7 7 7 8 12 11 8 7 7 8 9 7 7 8 8 7 8 9 9 9 8 8 8 7 8 9 8 8 8 7 7 7 7 7 7 6 7 8 8 9 9 9
Wind_Direction
315 298 299 307 296 290 231 193 207 210 192 203 221 191 167 163 157 194 216 157 155 207 178 178 140 135 161 123 129 122 121 132 150 168 177 176 177 174 174 175 177 178 174 175 178 179 183 183 183 181 184 185 185 185 185 185 186 187 183 186 190 193 194 198 201 201 200 200 199 198 197 198 200 202 202 201 201 198 196 200 202 203 202 198 200 202 201
304 303 298 301 308 304 319 293 215 221 205 196 212 215 200 169 167 196 178 159 162 167 189 151 206 192 165 105 131 107 93 93 111 151 169 173 172 168 170 171 172 172 173 176 177 176 179 183 186 183 182 183 185 185 185 186 189 186 183 187 189 191 194 196 198 198 198 199 198 197 196 196 199 200 200 200 201 201 200 200 201 202 204 203 201 202 202
315 306 302 292 293 297 303 295 256 222 224 198 195 215 221 186 166 191 188 150 158 182 149 171 198 182 84 107 124 116 115 113 116 127 153 165 166 157 158 166 170 172 173 173 176 179 182 186 188 188 184 184 184 185 185 186 189 188 185 187 189 190 192 192 193 194 195 197 196 198 199 197 196 198 199 199 200 201 201 199 199 199 201 205 203 200 202
323 348 322 303 292 295 306 300 302 224 218 211 182 206 213 200 182 184 163 157 157 200 148 95 105 96 104 101 106 97 101 107 99 104 126 128 118 139 156 164 164 172 176 175 177 181 185 188 190 189 184 181 183 188 187 189 188 188 188 187 190 192 190 188 191 191 194 194 195 198 197 199 197 198 198 198 200 201 200 200 199 197 201 204 204 200 201
320 321 324 306 311 327 318 291 272 111 113 314 201 189 210 213 152 173 180 224 211 193 157 120 98 95 97 94 80 86 73 71 100 118 124 129 134 133 136 139 150 157 169 175 177 180 183 189 189 188 179 178 185 187 188 188 184 191 193 189 189 190 188 187 189 190 191 193 195 196 198 199 199 197 198 200 201 199 201 201 196 198 202 200 204 203 200
305 311 316 320 316 293 263 301 338 46 17 317 307 189 198 208 148 182 170 187 156 100 115 132 129 107 111 125 125 117 107 80 65 55 92 140 152 151 152 154 155 153 145 152 162 170 176 181 185 183 178 180 185 185 184 181 186 192 195 191 188 189 188 187 187 187 189 192 194 197 197 198 198 198 199 202 202 200 200 196 198 201 200 202 203 204 203
304 308 319 354 260 237 295 322 305 320 326 357 301 173 177 203 215 152 159 166 172 145 148 132 120 124 103 90 78 57 75 96 99 87 86 93 70 99 141 139 133 144 147 151 154 149 157 161 161 162 175 177 170 179 181 185 189 190 195 194 185 188 189 188 185 186 187 190 194 195 196 197 198 200 201 204 203 201 198 198 199 200 199 201 204 205 207
287 304 320 237 233 310 310 298 316 323 287 74 338 61 30 13 310 229 187 176 171 135 122 112 125 108 99 83 72 63 33 70 122 122 133 113 121 127 122 112 156 162 153 152 157 165 161 147 160 160 168 171 171 183 182 186 190 191 192 195 187 185 189 187 187 186 186 189 191 192 192 194 198 203 203 203 202 202 201 202 203 202 205 206 205 206 208
325 336 321 276 281 300 278 310 326 335 70 37 95 74 35 12 8 353 258 161 156 145 119 93 69 85 77 52 18 35 43 24 43 82 104 152 139 139 153 139 128 129 146 145 156 154 152 170 168 176 174 168 172 175 184 186 184 192 191 196 189 186 187 187 188 186 186 188 189 190 190 191 197 201 203 203 205 201 204 204 201 202 205 207 207 206 208
353 321 326 327 298 252 323 330 317 290 290 90 73 86 32 19 7 17 27 16 32 102 111 95 90 83 69 52 20 14 25 8 354 18 17 32 95 114 105 82 79 108 115 106 107 115 139 138 160 177 177 174 170 173 187 188 184 191 195 198 187 183 188 187 185 185 187 186 188 189 189 195 197 200 201 203 203 197 202 204 207 206 205 208 209 210 211
327 319 307 280 297 284 21 323 345 340 320 93 110 72 54 356 6 11 29 31 28 15 15 111 99 80 82 68 25 9 41 38 42 60 59 56 60 56 62 84 85 64 60 84 83 71 76 277 242 125 158 182 176 184 186 192 195 196 203 198 186 184 185 183 183 184 185 187 188 189 192 196 195 196 198 199 198 195 205 209 214 211 206 209 212 215 217
271 280 283 306 340 358 310 347 345 330 318 81 63 75 15 332 8 10 28 36 29 16 15 58 59 67 75 64 95 47 52 59 51 47 57 64 59 50 49 48 60 70 63 54 44 57 169 245 284 180 133 160 192 189 192 189 196 205 204 196 182 171 176 179 180 182 184 186 188 189 192 192 193 195 192 192 195 197 201 203 207 211 207 207 211 216 216
237 241 267 271 282 307 331 2 356 342 318 59 65 100 247 330 352 23 24 35 25 20 17 29 64 47 72 62 73 76 63 60 50 43 43 69 76 73 57 35 24 44 52 93 126 117 75 314 279 275 113 145 194 206 196 192 203 205 192 173 173 170 170 176 178 180 182 185 186 188 187 187 186 186 186 192 193 197 200 200 205 209 211 208 208 213 210
249 270 269 249 280 350 331 353 21 353 359 51 65 358 296 278 15 35 25 26 26 21 21 26 48 47 37 31 22 35 84 71 66 63 42 55 76 71 65 54 52 62 68 47 39 40 25 4 353 342 358 331 215 199 198 209 210 186 167 172 169 166 168 174 175 177 179 180 182 181 179 175 179 185 186 188 192 195 195 197 203 206 210 215 213 208 205
261 248 266 337 1 330 349 354 21 10 53 96 232 266 316 18 29 23 20 23 26 21 17 25 41 40 34 27 25 20 41 73 63 48 47 59 63 58 50 38 31 52 46 36 37 27 10 4 347 332 343 334 296 220 204 221 199 168 171 168 168 165 165 169 174 174 173 171 173 176 175 174 175 178 177 184 188 187 189 194 198 202 206 209 213 214 201
251 202 212 127 264 308 2 40 47 299 52 158 23 29 23 17 23 14 7 10 26 24 24 20 24 35 28 24 22 25 35 61 55 49 44 56 60 53 45 40 26 34 43 27 10 360 353 339 305 309 329 302 300 264 235 211 182 175 165 167 164 164 166 168 169 170 167 166 169 171 169 168 171 170 175 181 183 186 187 191 193 200 202 196 205 207 209
245 268 273 18 335 7 8 24 25 6 27 64 61 39 35 18 24 11 14 4 4 19 26 21 19 24 21 24 19 23 19 43 65 58 51 47 50 56 44 26 14 14 37 41 10 359 16 12 352 323 274 266 278 251 254 182 172 166 161 158 161 165 166 166 166 164 163 164 168 167 164 163 168 174 178 174 182 183 182 186 187 191 184 179 186 189 183
318 293 243 211 58 29 11 24 11 3 38 30 35 33 25 26 19 20 13 0 5 7 18 16 20 18 11 10 10 13 20 22 40 58 56 50 51 51 40 21 13 21 8 5 9 16 18 1 349 343 338 175 147 285 327 120 152 150 150 151 157 161 161 161 164 161 162 162 161 162 157 164 167 173 174 174 178 179 179 183 178 174 175 174 176 168 178
326 263 325 97 72 32 356 3 347 36 35 32 29 23 16 13 17 15 15 3 6 6 16 13 9 14 9 4 2 2 8 21 33 46 52 46 54 49 28 16 12 9 19 14 36 30 19 352 345 338 354 13 19 12 40 45 93 126 134 141 146 148 151 153 153 153 155 154 155 154 152 147 152 162 165 169 168 169 173 174 170 169 167 170 168 165 171
273 278 302 328 347 7 349 4 7 30 23 25 25 18 4 12 16 15 7 2 7 2 10 8 3 1 359 3 1 358 359 6 20 24 38 48 36 28 34 25 22 24 25 40 41 35 15 345 346 343 351 359 357 2 17 43 81 107 119 128 134 139 141 143 144 144 147 145 144 138 123 127 145 163 164 166 161 156 169 170 167 168 154 160 166 170 154
312 307 308 324 337 267 334 49 35 29 27 16 18 11 7 18 13 5 5 6 7 2 356 350 354 1 353 356 356 353 350 351 4 24 14 17 27 25 37 28 18 32 40 42 42 33 11 356 349 343 351 11 10 7 354 31 74 101 112 119 122 130 137 137 146 142 148 135 116 106 92 78 60 37 358 45 95 75 17 301 192 155 130 88 87 85 94
285 282 306 360 22 5 40 48 24 22 22 23 11 359 13 10 10 355 352 4 15 357 348 340 345 356 343 346 356 355 351 343 5 20 13 6 10 31 28 21 13 30 55 60 48 28 357 356 348 348 353 7 5 360 356 12 74 88 112 117 121 129 138 141 142 135 125 109 115 111 109 102 91 63 46 46 33 81 69 59 70 73 98 106 115 107 88
262 285 290 349 352 315 87 33 23 20 28 5 3 359 356 357 349 358 5 358 355 350 337 332 345 346 345 341 352 355 352 339 336 5 6 8 9 23 13 28 22 59 73 70 67 37 347 343 332 336 18 20 16 6 7 8 81 102 84 85 77 76 90 112 122 118 110 110 104 105 107 105 97 98 83 47 40 40 56 72 83 82 80 81 78 85 105
284 291 299 307 310 286 335 33 357 345 358 348 12 342 331 342 348 15 8 358 344 331 327 328 341 339 339 341 343 351 346 334 342 358 360 9 9 356 38 65 114 89 69 82 98 68 355 345 356 24 22 20 12 3 6 54 74 76 82 86 86 86 93 97 92 100 110 111 110 107 104 108 111 113 105 99 58 32 32 55 76 80 82 83 86 88 96
268 276 280 292 323 324 320 27 27 340 324 10 33 16 351 346 343 354 342 335 333 319 323 326 320 327 336 333 335 334 339 323 327 349 350 346 354 352 50 26 10 80 63 85 49 32 32 63 49 39 42 31 33 24 31 53 71 79 82 89 90 87 89 89 90 99 107 113 116 117 118 114 117 119 121 117 109 97 44 41 58 82 91 92 94 98 93
296 305 310 313 310 313 327 330 315 354 336 331 337 349 338 328 316 320 312 318 294 293 300 309 327 330 333 325 318 321 318 314 326 334 320 311 292 271 162 96 149 44 95 61 62 62 48 46 56 62 53 30 43 52 57 74 76 76 74 80 82 86 89 90 91 93 100 108 107 107 111 113 114 110 107 109 117 118 119 115 82 54 52 85 102 97 94
283 282 296 308 302 309 320 311 301 329 318 304 306 332 352 330 310 281 247 262 308 302 324 333 321 314 315 311 307 301 301 300 302 296 299 294 295 310 153 210 168 96 72 59 71 82 74 65 73 73 58 47 54 59 70 85 90 88 84 79 81 73 71 77 86 89 93 98 106 112 115 116 116 114 114 121 123 123 122 116 112 111 110 77 60 88 92
274 275 279 272 275 289 314 326 331 331 327 318 337 335 337 328 315 316 313 303 196 332 324 302 304 305 312 314 317 309 304 297 289 292 283 291 289 246 247 191 114 100 98 107 112 89 103 118 105 87 75 50 55 55 74 89 87 88 84 84 80 79 70 69 79 85 86 88 91 100 106 105 105 106 111 109 105 104 106 106 113 117 109 97 95 75 76
252 261 265 265 271 288 295 292 293 302 310 316 326 328 333 330 321 317 317 324 326 329 315 302 289 290 278 294 311 305 300 290 282 276 284 319 267 205 162 119 113 91 86 76 35 36 44 42 45 55 37 9 18 66 79 88 93 89 86 81 82 83 82 79 82 88 90 87 88 92 95 99 99 98 94 93 93 96 98 105 112 116 116 124 84 48 40
238 237 244 254 259 266 280 278 275 280 291 316 324 322 322 321 316 314 316 322 330 322 319 301 265 258 266 272 290 298 300 297 288 283 252 183 236 197 156 152 132 121 97 84 109 121 114 101 90 83 75 72 77 76 71 75 78 86 89 88 89 90 94 95 93 92 92 93 94 90 90 92 94 97 97 92 92 93 100 105 110 107 105 98 93 85 64
226 224 224 225 234 251 253 260 268 272 280 292 294 300 302 301 299 304 311 319 322 318 319 337 19 40 360 289 275 297 301 294 289 278 79 31 351 344 333 333 287 141 112 121 149 65 60 73 110 119 113 89 87 76 79 77 80 83 81 84 89 94 94 92 90 92 95 93 86 87 88 94 99 101 98 96 89 87 95 104 110 113 117 107 91 77 60
210 211 212 211 213 221 235 249 261 261 259 265 266 264 270 280 287 295 304 309 312 318 331 359 0 4 343 313 312 353 340 332 13 57 67 69 54 55 65 60 56 55 55 45 46 49 47 39 25 17 100 111 98 100 93 87 86 86 96 103 101 97 86 85 81 79 83 84 84 79 82 88 91 93 93 95 102 110 106 101 109 114 104 96 83 78 64
199 194 197 200 203 210 220 224 230 236 236 242 245 254 262 261 269 286 307 317 312 349 17 22 29 23 12 17 20 4 46 60 47 36 45 52 43 37 76 77 69 58 56 50 43 39 38 33 18 34 37 94 121 110 108 106 101 99 95 91 91 86 84 79 84 82 80 80 77 77 84 91 99 97 98 99 98 93 83 76 79 92 98 96 105 110 86
192 200 205 200 200 201 207 212 210 223 224 224 239 247 251 265 294 46 64 47 41 53 31 36 61 50 40 33 32 6 43 60 44 37 35 32 27 14 21 54 76 78 72 58 56 49 40 38 36 33 49 60 107 117 109 101 94 90 90 88 82 82 81 81 79 81 76 65 64 62 60 58 59 72 82 83 80 74 74 68 75 95 98 96 96 108 70
165 216 236 188 180 202 192 213 212 208 208 227 223 229 250 45 78 105 93 76 64 55 58 73 73 63 54 45 37 26 51 58 48 43 39 32 23 15 3 348 61 83 71 66 63 56 46 41 33 43 53 62 64 74 79 83 86 87 85 81 78 72 68 65 66 66 71 72 68 65 60 59 58 56 55 57 57 57 54 50 50 57 69 68 49 27 33
37 35 33 31 29 0 275 221 207 194 196 198 115 86 67 71 86 119 88 74 67 63 78 86 78 71 61 55 42 31 52 55 51 45 41 34 26 16 16 358 351 43 76 67 49 59 53 47 41 47 56 56 64 67 81 89 89 91 88 83 79 76 75 73 70 67 63 64 64 62 62 64 63 59 55 52 48 45 47 46 50 52 50 48 41 33 25
35 45 49 45 38 48 78 61 63 67 60 58 62 69 64 57 53 86 84 75 67 63 49 71 79 78 74 65 57 44 46 51 55 54 49 42 38 37 33 20 10 3 15 52 14 25 67 57 50 46 51 58 52 48 45 64 85 77 76 73 75 77 78 74 69 68 65 62 63 63 61 60 58 56 52 50 49 45 45 45 42 44 43 40 31 27 26
39 38 40 38 32 41 76 61 56 68 68 66 61 59 53 31 37 67 71 70 61 58 59 63 71 80 84 77 62 49 44 45 52 57 56 49 39 44 39 31 19 3 2 3 4 60 64 59 56 57 57 58 58 56 54 58 66 69 71 71 73 74 75 75 74 71 69 66 63 62 60 60 59 56 52 52 51 49 48 45 45 44 45 40 33 29 26
40 38 35 34 33 43 59 57 52 56 55 61 70 81 85 72 65 67 64 61 60 56 58 63 70 70 64 71 74 59 42 41 47 52 56 49 47 52 48 36 26 15 352 337 341 45 58 58 56 62 60 58 61 62 56 55 58 62 64 65 65 66 70 78 79 77 73 69 66 64 62 59 58 59 55 52 49 49 49 49 49 47 45 36 30 28 26
44 40 33 31 32 33 43 48 48 47 48 47 51 57 61 64 67 73 69 63 58 58 60 61 61 65 66 61 62 66 59 41 38 49 51 52 47 50 46 33 25 21 11 1 2 28 50 58 63 65 64 63 62 64 59 58 59 59 57 59 59 59 57 59 64 69 69 69 68 66 63 60 60 59 56 54 52 50 46 44 45 43 42 38 35 28 24
48 51 48 42 39 41 39 36 39 42 45 44 43 43 44 49 56 63 68 72 67 62 64 61 61 61 63 65 65 63 61 55 47 42 44 48 47 46 47 38 19 22 20 10 11 20 36 44 45 54 57 61 61 62 63 60 60 60 61 62 61 62 61 60 61 60 61 61 61 61 64 65 63 59 55 52 51 48 45 43 43 41 42 40 35 28 28
40 42 47 51 51 49 49 48 44 42 42 40 38 38 36 36 46 56 59 67 75 71 67 66 66 66 63 64 66 61 57 55 52 47 43 45 41 41 51 39 26 28 32 27 12 21 26 31 36 47 56 62 62 63 65 64 62 63 65 64 64 63 63 64 64 63 63 65 65 66 66 65 65 63 58 56 52 48 48 46 43 42 41 41 38 33 28
42 41 38 39 39 43 50 51 49 48 46 41 40 42 38 36 40 43 45 47 53 61 74 79 73 68 69 72 69 64 57 55 56 53 53 48 44 43 51 48 34 37 40 37 28 19 24 26 35 41 50 55 60 63 65 62 62 62 64 65 65 65 65 64 64 64 64 67 68 68 65 64 64 66 64 60 56 52 50 47 43 42 42 42 40 40 35
46 45 43 40 37 35 37 42 47 51 55 51 44 42 39 38 40 43 42 43 46 43 43 53 66 69 66 68 76 77 69 61 57 57 61 55 49 45 41 45 41 41 44 46 45 35 25 23 33 39 41 45 53 58 61 62 63 62 62 63 67 68 70 68 66 65 66 66 67 67 68 69 68 69 71 69 65 60 56 55 53 45 46 47 42 40 39
46 46 46 44 43 42 38 37 37 39 47 57 59 56 49 43 40 40 42 41 42 42 40 41 43 48 51 54 61 74 86 81 74 73 72 64 55 41 32 46 46 44 49 51 52 49 41 34 36 40 40 40 45 51 55 57 62 63 63 64 65 70 72 74 75 75 73 71 70 72 73 75 78 79 80 81 82 80 75 70 68 62 57 51 46 41 37
44 40 40 43 46 45 44 44 39 38 38 40 48 55 57 54 47 46 44 43 42 40 42 44 45 43 42 49 55 57 64 77 86 80 83 90 89 81 55 54 50 55 53 51 48 52 52 46 43 43 45 45 43 47 51 52 54 57 62 64 65 65 68 73 79 84 84 84 83 83 84 88 87 85 81 81 81 81 81 81 81 73 68 63 59 55 48
46 41 39 40 38 34 36 44 47 46 44 43 41 38 36 50 57 50 45 45 46 45 41 42 41 41 42 44 44 46 54 58 61 58 80 90 97 97 90 79 73 73 67 60 58 56 58 58 52 49 47 46 44 41 46 46 51 54 55 57 57 61 63 66 67 73 83 95 101 104 105 101 99 97 97 95 89 84 82 79 77 73 73 71 67 59 55
56 53 51 44 42 37 32 31 35 46 49 47 42 38 33 32 42 55 49 41 42 44 48 44 40 37 37 38 37 39 39 44 67 56 38 62 66 74 75 74 71 66 68 72 71 68 67 68 74 71 64 58 53 51 50 51 48 48 46 45 48 52 57 64 69 71 74 75 85 98 104 103 99 98 97 91 89 89 91 86 83 79 76 72 70 65 62
48 72 67 60 54 47 42 35 31 31 36 44 50 44 34 30 30 32 54 52 42 39 38 37 43 44 40 35 37 28 28 29 44 65 50 56 65 70 75 70 65 64 62 60 55 54 58 66 66 63 62 64 63 63 63 60 57 55 52 49 45 39 38 45 46 47 49 47 42 44 54 69 82 92 99 101 109 110 109 104 99 98 92 83 77 72 67
29 39 58 56 56 53 50 49 45 34 24 18 32 49 45 34 31 22 24 58 60 49 40 33 29 30 34 39 31 32 26 30 30 34 40 45 47 52 56 60 57 53 49 46 45 46 43 43 42 50 52 52 51 50 50 56 57 57 53 47 42 41 35 37 44 44 52 54 52 52 54 53 53 51 56 69 83 81 77 92 101 96 87 83 83 81 74
31 43 46 46 43 46 53 60 59 47 29 26 22 50 60 47 39 29 21 49 67 58 46 43 33 28 27 31 34 34 27 27 40 54 51 48 55 71 72 66 62 60 56 50 46 44 41 45 52 48 48 52 56 58 60 58 56 54 53 52 48 43 39 33 36 40 37 39 51 52 55 55 52 49 45 44 48 59 68 69 70 81 95 90 75 68 64
39 32 39 41 43 42 33 31 39 51 48 43 35 42 68 72 55 43 43 50 61 75 63 52 45 30 24 28 34 31 29 36 32 29 41 56 67 63 68 68 64 57 52 51 50 43 40 39 47 54 53 47 48 47 52 57 63 59 57 52 53 50 44 42 39 37 33 31 46 54 48 45 43 38 36 38 47 51 53 59 63 64 71 79 78 73 66